Precipitable_Water
1.47 1.39 1.35 1.31 1.26 1.17 1.14 1.15 1.16 1.22 1.29 1.35 1.36 1.40 1.45 1.49 1.51 1.53 1.54 1.50 1.53 1.51 1.50 1.51 1.53 1.54 1.56 1.60 1.60 1.61 1.60 1.58 1.60 1.59 1.57 1.56 1.58 1.58 1.62 1.66 1.64 1.66 1.66 1.63 1.67 1.67 1.64 1.61 1.62 1.65 1.70 1.64 1.65 1.65 1.65 1.71 1.74 1.77 1.80 1.80 1.78 1.80 1.73 1.64 1.50 1.50 1.69 1.89 1.85 1.84 1.89 1.89 1.84 1.92 1.86 1.86 1.88 1.91 1.91 1.92 1.91 1.86 1.85 1.86 1.90
1.53 1.46 1.40 1.35 1.28 1.23 1.18 1.17 1.15 1.18 1.20 1.27 1.29 1.34 1.39 1.43 1.48 1.50 1.46 1.48 1.50 1.49 1.49 1.51 1.53 1.54 1.55 1.57 1.57 1.57 1.58 1.58 1.59 1.60 1.58 1.58 1.60 1.67 1.67 1.70 1.71 1.68 1.68 1.65 1.69 1.72 1.71 1.65 1.67 1.73 1.79 1.72 1.71 1.70 1.74 1.76 1.75 1.74 1.75 1.73 1.72 1.72 1.77 1.63 1.58 1.54 1.52 1.74 1.75 1.82 1.79 1.84 1.69 1.85 1.75 1.73 1.73 1.76 1.74 1.78 1.86 1.88 1.87 1.89 1.89
1.58 1.54 1.46 1.38 1.32 1.30 1.27 1.22 1.17 1.14 1.13 1.17 1.21 1.26 1.33 1.38 1.43 1.42 1.43 1.45 1.48 1.46 1.48 1.51 1.53 1.54 1.54 1.55 1.56 1.57 1.61 1.61 1.65 1.64 1.63 1.63 1.65 1.70 1.74 1.77 1.77 1.72 1.67 1.67 1.69 1.74 1.72 1.69 1.70 1.77 1.81 1.77 1.80 1.81 1.79 1.75 1.75 1.70 1.70 1.71 1.66 1.69 1.72 1.73 1.62 1.52 1.46 1.48 1.61 1.60 1.65 1.68 1.63 1.63 1.68 1.68 1.67 1.69 1.66 1.70 1.75 1.83 1.89 1.92 1.92
1.60 1.55 1.49 1.43 1.38 1.34 1.30 1.26 1.21 1.16 1.12 1.14 1.14 1.19 1.25 1.32 1.37 1.36 1.40 1.44 1.43 1.46 1.47 1.51 1.53 1.53 1.53 1.54 1.57 1.58 1.60 1.65 1.70 1.75 1.76 1.76 1.77 1.80 1.85 1.86 1.83 1.78 1.73 1.72 1.76 1.81 1.85 1.81 1.79 1.85 1.88 1.79 1.78 1.76 1.76 1.76 1.72 1.70 1.65 1.67 1.64 1.63 1.67 1.66 1.63 1.50 1.47 1.39 1.53 1.52 1.56 1.49 1.53 1.59 1.62 1.64 1.60 1.59 1.64 1.69 1.76 1.80 1.86 1.90 1.91
1.62 1.57 1.53 1.47 1.43 1.37 1.31 1.29 1.22 1.17 1.13 1.13 1.12 1.15 1.18 1.23 1.29 1.30 1.33 1.36 1.39 1.41 1.46 1.47 1.49 1.50 1.49 1.51 1.55 1.59 1.64 1.70 1.74 1.78 1.82 1.85 1.86 1.86 1.86 1.86 1.85 1.82 1.79 1.79 1.88 1.98 1.94 1.87 1.85 1.79 1.78 1.75 1.77 1.73 1.74 1.71 1.71 1.68 1.62 1.63 1.62 1.64 1.65 1.64 1.61 1.58 1.48 1.41 1.43 1.52 1.53 1.53 1.55 1.57 1.66 1.56 1.56 1.59 1.64 1.63 1.65 1.71 1.80 1.87 1.87
1.67 1.60 1.56 1.52 1.47 1.42 1.38 1.34 1.27 1.22 1.18 1.15 1.12 1.14 1.15 1.16 1.18 1.23 1.24 1.25 1.30 1.34 1.36 1.37 1.40 1.42 1.45 1.47 1.51 1.58 1.66 1.75 1.81 1.85 1.87 1.87 1.86 1.85 1.86 1.87 1.89 1.90 1.91 1.98 1.98 1.88 1.84 1.85 1.88 1.91 1.82 1.65 1.68 1.76 1.74 1.71 1.71 1.67 1.64 1.66 1.67 1.67 1.62 1.62 1.61 1.57 1.52 1.48 1.48 1.46 1.56 1.51 1.52 1.57 1.60 1.57 1.49 1.46 1.52 1.59 1.64 1.68 1.68 1.70 1.77
1.75 1.66 1.60 1.54 1.52 1.48 1.44 1.41 1.39 1.35 1.31 1.25 1.21 1.16 1.13 1.12 1.13 1.13 1.18 1.17 1.19 1.22 1.28 1.29 1.34 1.36 1.39 1.42 1.49 1.60 1.71 1.80 1.89 1.97 1.99 2.02 1.97 1.92 1.90 1.92 1.92 1.94 2.00 2.00 1.99 2.06 2.06 2.01 1.95 1.94 1.90 1.82 1.72 1.72 1.75 1.71 1.70 1.66 1.67 1.67 1.67 1.62 1.58 1.59 1.59 1.53 1.49 1.44 1.45 1.46 1.42 1.49 1.49 1.41 1.51 1.57 1.55 1.52 1.44 1.43 1.46 1.58 1.62 1.62 1.62
1.77 1.74 1.67 1.60 1.54 1.53 1.52 1.49 1.46 1.43 1.41 1.38 1.33 1.26 1.20 1.16 1.14 1.15 1.17 1.16 1.16 1.19 1.23 1.26 1.30 1.33 1.37 1.42 1.55 1.68 1.76 1.83 1.96 2.08 2.08 2.01 1.97 1.97 1.98 1.96 1.97 1.99 2.00 1.97 1.99 1.98 1.97 1.94 1.91 1.93 1.94 1.91 1.86 1.83 1.77 1.74 1.74 1.70 1.71 1.69 1.64 1.57 1.52 1.52 1.49 1.46 1.40 1.38 1.34 1.32 1.36 1.34 1.40 1.46 1.51 1.49 1.41 1.43 1.49 1.46 1.38 1.45 1.53 1.62 1.65
1.71 1.72 1.71 1.64 1.60 1.59 1.60 1.60 1.56 1.51 1.48 1.46 1.41 1.35 1.30 1.24 1.22 1.22 1.22 1.20 1.21 1.23 1.27 1.28 1.29 1.32 1.39 1.46 1.58 1.70 1.75 1.83 1.92 1.98 1.99 2.01 2.05 2.05 2.05 2.01 2.01 1.97 1.93 1.88 1.87 1.86 1.87 1.92 1.94 1.97 2.04 2.08 2.10 2.01 1.92 1.85 1.77 1.71 1.72 1.70 1.65 1.59 1.54 1.51 1.47 1.43 1.41 1.40 1.38 1.41 1.38 1.38 1.43 1.45 1.45 1.45 1.42 1.39 1.50 1.54 1.49 1.53 1.57 1.58 1.65
1.67 1.66 1.67 1.67 1.65 1.65 1.64 1.62 1.60 1.57 1.50 1.46 1.46 1.45 1.41 1.35 1.30 1.27 1.25 1.26 1.28 1.31 1.32 1.32 1.31 1.34 1.40 1.49 1.60 1.68 1.74 1.80 1.87 1.98 2.02 1.98 1.99 1.99 2.04 2.05 2.00 1.93 1.84 1.79 1.81 1.87 1.92 1.95 1.96 1.96 1.98 2.04 2.10 2.06 2.02 1.98 1.93 1.87 1.83 1.78 1.73 1.67 1.61 1.56 1.52 1.50 1.45 1.39 1.38 1.38 1.35 1.37 1.44 1.50 1.49 1.55 1.63 1.66 1.61 1.58 1.51 1.56 1.60 1.57 1.64
1.67 1.63 1.62 1.68 1.68 1.68 1.66 1.63 1.62 1.58 1.55 1.51 1.49 1.49 1.49 1.47 1.41 1.33 1.29 1.29 1.31 1.35 1.36 1.33 1.34 1.37 1.42 1.48 1.55 1.63 1.71 1.78 1.83 1.87 1.89 1.91 1.95 2.03 2.01 2.04 2.00 1.95 1.90 1.82 1.77 1.78 1.80 1.87 1.96 2.02 2.04 2.06 2.08 2.06 2.06 2.06 2.01 1.97 1.93 1.88 1.83 1.74 1.65 1.60 1.54 1.53 1.49 1.44 1.46 1.47 1.46 1.45 1.51 1.58 1.59 1.62 1.66 1.64 1.61 1.61 1.59 1.61 1.56 1.49 1.39
1.72 1.65 1.64 1.67 1.68 1.67 1.66 1.65 1.63 1.61 1.59 1.54 1.52 1.51 1.52 1.52 1.49 1.44 1.35 1.31 1.33 1.36 1.36 1.36 1.38 1.39 1.44 1.48 1.54 1.63 1.68 1.71 1.78 1.86 1.90 1.96 2.01 2.02 2.04 1.96 1.95 2.01 1.99 1.88 1.81 1.77 1.75 1.82 1.92 1.98 2.01 2.04 2.07 2.08 2.07 2.07 2.04 2.00 1.97 1.91 1.82 1.74 1.73 1.68 1.60 1.54 1.52 1.48 1.49 1.51 1.51 1.51 1.56 1.60 1.61 1.63 1.62 1.63 1.64 1.64 1.62 1.59 1.53 1.45 1.39
1.79 1.73 1.69 1.67 1.66 1.67 1.68 1.66 1.63 1.63 1.62 1.60 1.58 1.56 1.53 1.51 1.50 1.48 1.42 1.39 1.37 1.34 1.36 1.38 1.39 1.45 1.48 1.50 1.54 1.60 1.61 1.67 1.70 1.77 1.81 1.80 1.87 1.98 1.98 1.97 1.98 2.04 1.98 1.86 1.81 1.76 1.73 1.73 1.74 1.81 1.88 1.92 1.94 1.99 2.03 2.04 1.97 1.98 1.93 1.85 1.78 1.76 1.78 1.81 1.81 1.73 1.67 1.57 1.52 1.51 1.54 1.57 1.54 1.56 1.62 1.63 1.71 1.59 1.60 1.58 1.58 1.57 1.49 1.39 1.34
1.83 1.79 1.75 1.72 1.71 1.70 1.69 1.66 1.63 1.63 1.65 1.65 1.63 1.58 1.54 1.49 1.51 1.54 1.54 1.52 1.41 1.36 1.38 1.39 1.45 1.50 1.54 1.54 1.52 1.54 1.57 1.61 1.66 1.72 1.77 1.79 1.85 1.95 1.98 1.93 1.94 1.92 1.83 1.77 1.72 1.70 1.71 1.70 1.66 1.66 1.73 1.79 1.89 1.95 2.01 2.00 1.98 1.97 1.93 1.90 1.84 1.84 1.86 1.87 1.83 1.78 1.72 1.65 1.62 1.56 1.65 1.66 1.57 1.58 1.60 1.65 1.59 1.51 1.48 1.46 1.51 1.48 1.46 1.35 1.35
1.82 1.83 1.81 1.80 1.78 1.75 1.71 1.68 1.65 1.65 1.67 1.67 1.64 1.60 1.56 1.54 1.53 1.56 1.58 1.54 1.47 1.39 1.38 1.42 1.51 1.56 1.57 1.56 1.53 1.51 1.54 1.58 1.62 1.67 1.72 1.76 1.79 1.79 1.78 1.78 1.75 1.74 1.75 1.75 1.74 1.73 1.72 1.70 1.67 1.64 1.64 1.67 1.79 1.88 1.86 1.84 1.83 1.81 1.86 1.86 1.88 1.89 1.84 1.77 1.71 1.69 1.68 1.69 1.68 1.70 1.70 1.71 1.66 1.63 1.61 1.63 1.58 1.54 1.50 1.44 1.44 1.45 1.46 1.51 1.35
1.78 1.81 1.82 1.85 1.85 1.83 1.77 1.71 1.69 1.69 1.68 1.67 1.64 1.62 1.60 1.57 1.54 1.57 1.57 1.58 1.57 1.51 1.49 1.52 1.53 1.54 1.56 1.56 1.53 1.51 1.53 1.57 1.60 1.64 1.67 1.69 1.70 1.71 1.72 1.71 1.68 1.67 1.67 1.70 1.72 1.72 1.71 1.70 1.70 1.71 1.70 1.70 1.69 1.67 1.66 1.67 1.70 1.78 1.84 1.85 1.79 1.77 1.72 1.72 1.70 1.69 1.70 1.72 1.74 1.71 1.69 1.67 1.65 1.59 1.54 1.52 1.52 1.51 1.50 1.47 1.44 1.38 1.27 1.18 1.12
1.76 1.77 1.79 1.84 1.88 1.89 1.87 1.78 1.72 1.72 1.72 1.68 1.63 1.62 1.59 1.58 1.58 1.60 1.55 1.54 1.50 1.47 1.45 1.49 1.54 1.55 1.57 1.57 1.54 1.53 1.55 1.58 1.60 1.61 1.63 1.66 1.67 1.70 1.72 1.71 1.68 1.66 1.70 1.74 1.75 1.74 1.77 1.78 1.79 1.81 1.86 1.85 1.82 1.77 1.72 1.75 1.81 1.82 1.77 1.70 1.68 1.67 1.65 1.70 1.72 1.70 1.69 1.70 1.68 1.65 1.63 1.60 1.56 1.51 1.46 1.44 1.42 1.41 1.35 1.22 1.12 1.11 1.03 0.96 1.01
1.70 1.79 1.80 1.83 1.87 1.90 1.90 1.87 1.78 1.75 1.74 1.68 1.67 1.67 1.67 1.68 1.64 1.64 1.56 1.48 1.44 1.46 1.49 1.50 1.55 1.58 1.58 1.55 1.55 1.53 1.54 1.58 1.60 1.62 1.66 1.70 1.74 1.75 1.75 1.69 1.65 1.64 1.69 1.73 1.77 1.80 1.82 1.86 1.82 1.84 1.83 1.83 1.87 1.85 1.88 1.91 1.83 1.81 1.74 1.68 1.65 1.63 1.66 1.69 1.68 1.66 1.66 1.60 1.54 1.51 1.51 1.49 1.48 1.43 1.36 1.30 1.25 1.20 1.07 0.94 1.00 1.00 0.91 0.90 0.83
1.49 1.61 1.77 1.89 1.91 1.93 1.94 1.91 1.87 1.83 1.77 1.74 1.74 1.73 1.74 1.73 1.74 1.71 1.65 1.61 1.53 1.48 1.48 1.48 1.51 1.55 1.58 1.55 1.55 1.54 1.53 1.55 1.61 1.66 1.72 1.76 1.81 1.82 1.77 1.72 1.66 1.66 1.69 1.72 1.75 1.76 1.80 1.82 1.83 1.82 1.81 1.83 1.84 1.87 1.88 1.84 1.76 1.72 1.68 1.64 1.60 1.58 1.58 1.58 1.52 1.48 1.46 1.44 1.43 1.43 1.38 1.33 1.30 1.28 1.26 1.25 1.23 1.20 1.15 1.08 1.06 0.95 0.84 0.79 0.74
1.47 1.53 1.61 1.77 1.91 1.95 1.97 1.95 1.93 1.91 1.84 1.82 1.82 1.81 1.84 1.81 1.76 1.72 1.68 1.67 1.62 1.55 1.49 1.48 1.53 1.58 1.61 1.57 1.54 1.55 1.52 1.53 1.59 1.66 1.74 1.82 1.86 1.85 1.79 1.68 1.61 1.63 1.68 1.68 1.67 1.71 1.75 1.77 1.82 1.87 1.87 1.89 1.90 1.84 1.77 1.76 1.71 1.70 1.66 1.58 1.50 1.44 1.50 1.47 1.43 1.39 1.33 1.30 1.25 1.22 1.19 1.20 1.18 1.14 1.08 1.00 0.95 0.93 0.91 0.88 0.83 0.80 0.72 0.68 0.67
1.51 1.54 1.56 1.57 1.68 1.85 1.95 1.97 1.96 1.98 1.98 1.92 1.89 1.89 1.89 1.87 1.86 1.80 1.73 1.72 1.73 1.70 1.56 1.47 1.50 1.60 1.65 1.62 1.58 1.58 1.58 1.55 1.62 1.71 1.77 1.80 1.83 1.82 1.78 1.71 1.69 1.69 1.70 1.70 1.70 1.70 1.73 1.78 1.82 1.84 1.80 1.76 1.69 1.66 1.69 1.71 1.69 1.64 1.59 1.50 1.47 1.47 1.44 1.34 1.30 1.27 1.22 1.19 1.14 1.08 1.03 0.99 0.92 0.84 0.77 0.73 0.71 0.70 0.70 0.69 0.68 0.67 0.64 0.61 0.59
1.57 1.57 1.58 1.60 1.61 1.65 1.78 1.94 2.01 2.02 2.06 2.04 1.95 1.92 1.96 1.97 1.94 1.90 1.85 1.81 1.80 1.80 1.75 1.61 1.55 1.58 1.64 1.70 1.70 1.69 1.69 1.66 1.66 1.70 1.73 1.73 1.74 1.76 1.71 1.67 1.70 1.67 1.64 1.68 1.70 1.70 1.71 1.71 1.71 1.71 1.69 1.66 1.65 1.63 1.60 1.58 1.57 1.53 1.49 1.47 1.45 1.41 1.36 1.30 1.24 1.19 1.13 1.07 1.00 0.92 0.83 0.73 0.67 0.66 0.65 0.64 0.65 0.66 0.64 0.64 0.63 0.63 0.63 0.61 0.57
1.58 1.58 1.57 1.57 1.61 1.65 1.67 1.76 1.93 2.04 2.06 2.07 2.00 1.95 1.99 2.00 1.97 1.97 1.92 1.87 1.83 1.81 1.79 1.74 1.68 1.66 1.66 1.69 1.73 1.74 1.75 1.75 1.74 1.72 1.69 1.66 1.64 1.63 1.62 1.62 1.65 1.69 1.67 1.66 1.68 1.67 1.70 1.70 1.69 1.66 1.62 1.62 1.63 1.62 1.57 1.54 1.51 1.49 1.48 1.45 1.38 1.30 1.24 1.17 1.10 1.03 0.94 0.85 0.76 0.68 0.63 0.60 0.58 0.58 0.60 0.61 0.62 0.65 0.63 0.63 0.62 0.62 0.62 0.62 0.63
1.55 1.54 1.53 1.56 1.62 1.67 1.73 1.73 1.79 1.93 2.02 2.06 2.03 2.00 2.00 2.01 2.00 1.98 1.96 1.92 1.86 1.82 1.79 1.77 1.74 1.69 1.71 1.75 1.76 1.79 1.79 1.76 1.73 1.69 1.67 1.66 1.64 1.61 1.60 1.63 1.69 1.70 1.68 1.65 1.66 1.69 1.69 1.70 1.67 1.62 1.59 1.59 1.59 1.56 1.53 1.52 1.48 1.43 1.36 1.28 1.23 1.19 1.12 1.00 0.90 0.83 0.77 0.70 0.64 0.60 0.58 0.60 0.60 0.60 0.60 0.61 0.62 0.63 0.63 0.62 0.62 0.61 0.60 0.59 0.59
1.53 1.53 1.54 1.57 1.62 1.71 1.76 1.80 1.77 1.79 1.92 1.99 1.95 1.95 1.97 1.99 1.96 1.97 1.95 1.93 1.92 1.88 1.85 1.79 1.73 1.73 1.72 1.74 1.74 1.77 1.79 1.75 1.72 1.71 1.70 1.65 1.62 1.62 1.63 1.64 1.64 1.65 1.64 1.67 1.72 1.74 1.72 1.69 1.66 1.63 1.63 1.61 1.57 1.52 1.48 1.43 1.38 1.31 1.25 1.18 1.10 1.01 0.93 0.86 0.81 0.78 0.72 0.66 0.63 0.63 0.64 0.66 0.67 0.67 0.68 0.69 0.68 0.67 0.65 0.62 0.62 0.60 0.59 0.60 0.60
1.56 1.57 1.59 1.60 1.63 1.71 1.75 1.80 1.81 1.80 1.79 1.85 1.92 1.96 1.95 1.92 1.94 1.94 1.93 1.89 1.91 1.88 1.84 1.79 1.78 1.79 1.77 1.74 1.70 1.71 1.71 1.70 1.70 1.69 1.65 1.62 1.60 1.60 1.63 1.66 1.69 1.71 1.71 1.72 1.73 1.72 1.69 1.67 1.67 1.62 1.58 1.54 1.51 1.46 1.40 1.34 1.26 1.20 1.13 1.08 1.01 0.95 0.90 0.86 0.84 0.80 0.74 0.71 0.69 0.67 0.68 0.70 0.69 0.69 0.70 0.68 0.63 0.59 0.60 0.57 0.55 0.52 0.52 0.52 0.53
1.54 1.59 1.62 1.64 1.64 1.68 1.71 1.72 1.72 1.74 1.74 1.75 1.78 1.84 1.94 1.95 1.92 1.89 1.89 1.89 1.87 1.83 1.80 1.75 1.75 1.74 1.69 1.65 1.65 1.64 1.61 1.61 1.63 1.62 1.63 1.61 1.59 1.61 1.64 1.66 1.69 1.70 1.70 1.69 1.67 1.65 1.64 1.63 1.61 1.59 1.54 1.49 1.43 1.37 1.30 1.24 1.17 1.11 1.06 1.02 0.98 0.95 0.91 0.89 0.84 0.79 0.75 0.70 0.68 0.68 0.69 0.70 0.73 0.72 0.66 0.64 0.60 0.58 0.58 0.54 0.49 0.47 0.46 0.49 0.47
1.54 1.56 1.60 1.66 1.69 1.71 1.68 1.68 1.68 1.68 1.69 1.68 1.64 1.69 1.75 1.79 1.86 1.85 1.87 1.87 1.83 1.81 1.78 1.72 1.68 1.65 1.60 1.58 1.55 1.53 1.51 1.50 1.50 1.49 1.50 1.49 1.49 1.52 1.54 1.55 1.56 1.58 1.56 1.57 1.57 1.57 1.57 1.55 1.51 1.46 1.39 1.31 1.26 1.21 1.15 1.09 1.03 1.00 1.00 0.99 0.97 0.93 0.88 0.84 0.80 0.76 0.71 0.68 0.66 0.67 0.67 0.68 0.64 0.63 0.61 0.57 0.54 0.53 0.53 0.51 0.46 0.45 0.46 0.48 0.44
1.55 1.57 1.61 1.64 1.65 1.70 1.70 1.72 1.72 1.70 1.66 1.65 1.65 1.65 1.64 1.74 1.79 1.79 1.86 1.89 1.85 1.79 1.73 1.69 1.65 1.54 1.51 1.47 1.40 1.36 1.34 1.30 1.29 1.30 1.30 1.30 1.31 1.31 1.34 1.36 1.37 1.40 1.46 1.49 1.51 1.49 1.45 1.38 1.31 1.24 1.18 1.12 1.07 1.01 0.95 0.91 0.94 0.94 0.91 0.88 0.84 0.79 0.77 0.74 0.69 0.67 0.68 0.67 0.64 0.62 0.61 0.61 0.59 0.59 0.56 0.54 0.51 0.51 0.50 0.48 0.49 0.46 0.48 0.49 0.45
1.53 1.57 1.60 1.61 1.62 1.61 1.63 1.68 1.71 1.67 1.65 1.66 1.65 1.64 1.66 1.67 1.82 1.87 1.82 1.80 1.77 1.71 1.64 1.54 1.53 1.48 1.42 1.41 1.39 1.30 1.25 1.25 1.27 1.24 1.21 1.17 1.15 1.17 1.20 1.22 1.24 1.30 1.41 1.47 1.42 1.32 1.25 1.16 1.10 1.03 1.02 1.00 0.94 0.89 0.84 0.83 0.84 0.85 0.84 0.80 0.77 0.75 0.74 0.73 0.70 0.67 0.65 0.62 0.61 0.59 0.58 0.57 0.55 0.54 0.52 0.49 0.49 0.48 0.50 0.46 0.46 0.49 0.46 0.45 0.44
1.46 1.51 1.56 1.58 1.60 1.59 1.59 1.61 1.68 1.71 1.75 1.72 1.60 1.55 1.56 1.65 1.74 1.71 1.64 1.58 1.54 1.51 1.48 1.46 1.44 1.41 1.37 1.35 1.39 1.40 1.39 1.39 1.39 1.38 1.36 1.33 1.28 1.17 1.08 1.07 1.10 1.14 1.24 1.24 1.17 1.09 1.01 0.95 0.94 0.98 0.96 0.91 0.86 0.84 0.85 0.82 0.79 0.76 0.75 0.75 0.74 0.72 0.70 0.67 0.65 0.62 0.60 0.58 0.58 0.58 0.58 0.55 0.53 0.52 0.49 0.47 0.45 0.45 0.47 0.49 0.49 0.50 0.48 0.47 0.45
1.40 1.43 1.46 1.51 1.59 1.62 1.59 1.61 1.62 1.61 1.62 1.62 1.56 1.50 1.47 1.45 1.47 1.50 1.47 1.44 1.44 1.43 1.41 1.39 1.39 1.40 1.40 1.39 1.36 1.36 1.38 1.38 1.37 1.36 1.35 1.33 1.31 1.29 1.23 1.12 1.00 0.94 0.94 1.00 0.97 0.95 0.96 0.94 0.94 0.93 0.90 0.85 0.84 0.85 0.83 0.79 0.76 0.73 0.73 0.71 0.69 0.67 0.64 0.61 0.61 0.59 0.58 0.59 0.58 0.56 0.55 0.54 0.53 0.51 0.49 0.46 0.45 0.45 0.46 0.46 0.48 0.47 0.47 0.48 0.46
1.37 1.39 1.42 1.43 1.46 1.52 1.51 1.49 1.49 1.46 1.47 1.48 1.48 1.46 1.42 1.36 1.30 1.30 1.37 1.41 1.41 1.40 1.40 1.40 1.38 1.38 1.39 1.39 1.38 1.34 1.32 1.32 1.31 1.32 1.31 1.30 1.27 1.21 1.16 1.12 1.08 1.03 0.97 0.91 0.87 0.90 0.93 0.93 0.90 0.88 0.85 0.83 0.82 0.79 0.76 0.76 0.74 0.73 0.71 0.66 0.62 0.61 0.60 0.60 0.61 0.59 0.58 0.58 0.57 0.55 0.54 0.53 0.51 0.49 0.48 0.47 0.45 0.44 0.46 0.46 0.47 0.46 0.45 0.44 0.44
1.39 1.37 1.37 1.36 1.35 1.36 1.39 1.41 1.40 1.38 1.39 1.39 1.37 1.35 1.32 1.30 1.28 1.27 1.28 1.32 1.36 1.39 1.40 1.39 1.38 1.38 1.37 1.36 1.33 1.31 1.29 1.28 1.25 1.22 1.18 1.12 1.07 1.01 0.96 0.94 0.97 1.00 0.96 0.90 0.90 0.87 0.89 0.87 0.87 0.86 0.83 0.80 0.77 0.76 0.74 0.74 0.72 0.68 0.65 0.62 0.59 0.58 0.58 0.60 0.58 0.58 0.58 0.57 0.55 0.53 0.52 0.49 0.48 0.46 0.46 0.46 0.46 0.46 0.46 0.45 0.45 0.44 0.43 0.43 0.43
1.41 1.40 1.38 1.34 1.29 1.27 1.27 1.28 1.29 1.29 1.27 1.26 1.27 1.26 1.25 1.26 1.28 1.28 1.28 1.26 1.25 1.24 1.26 1.31 1.34 1.34 1.30 1.27 1.25 1.22 1.20 1.17 1.11 1.04 0.98 0.95 0.93 0.93 0.92 0.88 0.86 0.89 0.93 0.93 0.91 0.88 0.84 0.81 0.79 0.79 0.78 0.76 0.75 0.74 0.71 0.69 0.66 0.62 0.59 0.57 0.57 0.58 0.58 0.58 0.57 0.58 0.56 0.54 0.52 0.49 0.48 0.46 0.46 0.47 0.46 0.45 0.43 0.43 0.43 0.43 0.43 0.45 0.45 0.44 0.44
1.35 1.32 1.30 1.26 1.23 1.20 1.19 1.20 1.19 1.16 1.14 1.16 1.18 1.18 1.17 1.16 1.15 1.17 1.19 1.18 1.15 1.13 1.14 1.16 1.18 1.20 1.19 1.17 1.15 1.10 1.02 0.93 0.89 0.89 0.90 0.92 0.92 0.92 0.82 0.78 0.79 0.82 0.83 0.84 0.81 0.79 0.78 0.77 0.76 0.75 0.75 0.73 0.71 0.69 0.66 0.62 0.60 0.59 0.59 0.58 0.57 0.57 0.57 0.57 0.56 0.55 0.53 0.49 0.47 0.46 0.46 0.46 0.45 0.45 0.46 0.45 0.44 0.43 0.43 0.43 0.44 0.45 0.46 0.45 0.45
1.21 1.19 1.18 1.15 1.13 1.11 1.12 1.14 1.16 1.18 1.20 1.20 1.19 1.17 1.17 1.17 1.16 1.14 1.13 1.11 1.10 1.10 1.09 1.09 1.08 1.05 1.03 0.97 0.92 0.87 0.86 0.84 0.83 0.83 0.84 0.85 0.88 0.86 0.79 0.76 0.74 0.73 0.72 0.72 0.72 0.72 0.71 0.72 0.72 0.71 0.69 0.67 0.64 0.63 0.61 0.59 0.58 0.58 0.58 0.59 0.59 0.57 0.55 0.54 0.52 0.50 0.47 0.44 0.44 0.45 0.45 0.44 0.45 0.45 0.44 0.43 0.43 0.43 0.44 0.44 0.44 0.44 0.45 0.45 0.45
1.09 1.10 1.11 1.11 1.12 1.13 1.13 1.13 1.14 1.13 1.13 1.14 1.13 1.11 1.09 1.07 1.05 1.03 1.00 0.98 0.95 0.90 0.86 0.82 0.78 0.73 0.71 0.74 0.83 0.82 0.81 0.81 0.79 0.76 0.76 0.76 0.75 0.73 0.72 0.72 0.70 0.68 0.66 0.68 0.68 0.68 0.66 0.66 0.65 0.63 0.63 0.62 0.60 0.59 0.58 0.57 0.57 0.57 0.57 0.57 0.56 0.54 0.52 0.50 0.47 0.46 0.44 0.44 0.44 0.44 0.44 0.45 0.45 0.45 0.45 0.44 0.43 0.43 0.43 0.44 0.44 0.43 0.44 0.45 0.45
1.04 1.04 1.05 1.06 1.06 1.06 1.05 1.05 1.05 1.05 1.04 1.03 1.01 0.98 0.94 0.92 0.90 0.86 0.82 0.78 0.76 0.73 0.72 0.71 0.69 0.67 0.67 0.71 0.70 0.73 0.71 0.68 0.66 0.65 0.67 0.69 0.69 0.69 0.68 0.68 0.67 0.66 0.66 0.66 0.66 0.65 0.63 0.62 0.63 0.63 0.62 0.62 0.61 0.60 0.58 0.57 0.57 0.56 0.56 0.53 0.50 0.47 0.45 0.43 0.43 0.43 0.43 0.43 0.44 0.44 0.44 0.45 0.45 0.46 0.46 0.44 0.43 0.43 0.43 0.43 0.44 0.44 0.43 0.43 0.44
1.05 1.04 1.04 1.03 1.04 1.04 1.04 1.04 1.03 1.00 0.97 0.94 0.91 0.88 0.83 0.79 0.75 0.72 0.71 0.70 0.69 0.69 0.68 0.65 0.62 0.62 0.66 0.68 0.66 0.66 0.61 0.60 0.61 0.62 0.63 0.64 0.65 0.66 0.67 0.65 0.64 0.63 0.62 0.62 0.62 0.62 0.61 0.61 0.62 0.61 0.61 0.60 0.59 0.58 0.58 0.57 0.55 0.53 0.50 0.46 0.43 0.42 0.42 0.42 0.42 0.42 0.42 0.43 0.43 0.44 0.44 0.45 0.45 0.46 0.45 0.44 0.44 0.45 0.45 0.44 0.44 0.45 0.45 0.45 0.46
1.15 1.12 1.10 1.09 1.08 1.08 1.07 1.04 1.00 0.95 0.92 0.87 0.83 0.79 0.75 0.74 0.72 0.72 0.70 0.68 0.66 0.65 0.63 0.60 0.59 0.60 0.61 0.61 0.61 0.60 0.56 0.56 0.58 0.59 0.60 0.60 0.61 0.62 0.62 0.62 0.62 0.61 0.62 0.62 0.62 0.61 0.60 0.59 0.59 0.58 0.58 0.57 0.57 0.56 0.54 0.51 0.48 0.46 0.44 0.43 0.42 0.40 0.40 0.41 0.41 0.42 0.43 0.43 0.44 0.44 0.45 0.45 0.45 0.45 0.44 0.45 0.46 0.46 0.46 0.46 0.46 0.46 0.47 0.47 0.47
1.16 1.14 1.12 1.11 1.10 1.07 1.00 0.93 0.90 0.89 0.86 0.83 0.81 0.78 0.76 0.74 0.72 0.71 0.69 0.67 0.65 0.62 0.58 0.57 0.57 0.58 0.58 0.56 0.55 0.55 0.54 0.55 0.57 0.56 0.57 0.58 0.58 0.58 0.60 0.60 0.61 0.61 0.60 0.59 0.59 0.59 0.58 0.57 0.57 0.56 0.55 0.54 0.52 0.50 0.47 0.45 0.43 0.42 0.41 0.40 0.40 0.39 0.39 0.39 0.41 0.43 0.43 0.44 0.45 0.44 0.45 0.45 0.45 0.46 0.47 0.46 0.46 0.47 0.47 0.47 0.47 0.48 0.48 0.48 0.48
1.11 1.15 1.19 1.15 1.07 1.02 0.96 0.90 0.87 0.85 0.83 0.82 0.80 0.81 0.79 0.77 0.74 0.72 0.70 0.67 0.64 0.61 0.58 0.56 0.56 0.56 0.54 0.53 0.53 0.53 0.53 0.54 0.54 0.55 0.55 0.56 0.57 0.57 0.57 0.57 0.58 0.59 0.59 0.58 0.59 0.57 0.56 0.54 0.53 0.52 0.50 0.48 0.46 0.45 0.44 0.43 0.43 0.42 0.41 0.40 0.39 0.39 0.39 0.40 0.41 0.43 0.43 0.44 0.44 0.45 0.45 0.45 0.45 0.46 0.46 0.47 0.47 0.48 0.47 0.47 0.47 0.48 0.48 0.48 0.48
0.92 0.98 1.05 1.08 1.01 0.95 0.91 0.87 0.84 0.84 0.83 0.83 0.82 0.81 0.80 0.77 0.75 0.72 0.68 0.66 0.64 0.62 0.60 0.57 0.55 0.52 0.50 0.51 0.52 0.51 0.51 0.53 0.53 0.53 0.54 0.54 0.54 0.53 0.54 0.54 0.54 0.54 0.54 0.53 0.54 0.53 0.51 0.48 0.46 0.45 0.45 0.45 0.45 0.45 0.43 0.43 0.43 0.41 0.40 0.40 0.39 0.39 0.40 0.40 0.41 0.42 0.43 0.44 0.44 0.44 0.44 0.45 0.46 0.46 0.46 0.47 0.48 0.47 0.46 0.47 0.47 0.47 0.47 0.47 0.48
0.87 0.92 0.93 0.92 0.92 0.88 0.82 0.83 0.82 0.80 0.79 0.79 0.77 0.77 0.77 0.75 0.71 0.69 0.66 0.64 0.62 0.61 0.58 0.56 0.53 0.50 0.49 0.49 0.50 0.49 0.50 0.51 0.51 0.51 0.51 0.51 0.51 0.51 0.52 0.52 0.52 0.51 0.50 0.49 0.49 0.48 0.46 0.45 0.44 0.44 0.43 0.44 0.45 0.44 0.43 0.42 0.42 0.42 0.42 0.41 0.40 0.40 0.40 0.41 0.42 0.44 0.45 0.45 0.45 0.45 0.45 0.45 0.45 0.45 0.45 0.46 0.47 0.46 0.45 0.45 0.46 0.46 0.45 0.45 0.45
0.72 0.73 0.74 0.77 0.79 0.81 0.79 0.78 0.78 0.74 0.73 0.73 0.72 0.71 0.72 0.72 0.69 0.67 0.65 0.63 0.61 0.58 0.56 0.53 0.50 0.48 0.47 0.47 0.48 0.48 0.48 0.48 0.48 0.49 0.49 0.49 0.49 0.49 0.50 0.49 0.48 0.47 0.47 0.47 0.47 0.46 0.46 0.45 0.44 0.44 0.43 0.43 0.43 0.42 0.41 0.42 0.43 0.44 0.44 0.44 0.44 0.43 0.44 0.44 0.45 0.45 0.46 0.47 0.46 0.46 0.46 0.45 0.45 0.45 0.45 0.46 0.46 0.46 0.45 0.46 0.47 0.47 0.45 0.45 0.45
0.74 0.67 0.64 0.64 0.66 0.69 0.72 0.72 0.71 0.72 0.74 0.75 0.75 0.73 0.70 0.68 0.67 0.65 0.63 0.60 0.58 0.55 0.51 0.48 0.46 0.45 0.46 0.45 0.45 0.45 0.46 0.45 0.45 0.45 0.46 0.46 0.46 0.46 0.47 0.47 0.47 0.47 0.47 0.47 0.47 0.46 0.46 0.45 0.45 0.43 0.42 0.41 0.41 0.42 0.43 0.44 0.45 0.45 0.45 0.45 0.45 0.45 0.45 0.45 0.46 0.47 0.48 0.49 0.49 0.47 0.46 0.45 0.44 0.45 0.45 0.46 0.46 0.46 0.47 0.46 0.46 0.46 0.46 0.45 0.45
0.72 0.69 0.64 0.62 0.64 0.65 0.67 0.70 0.71 0.73 0.73 0.72 0.70 0.67 0.67 0.66 0.65 0.63 0.61 0.59 0.55 0.52 0.50 0.48 0.47 0.46 0.46 0.45 0.46 0.45 0.45 0.44 0.44 0.45 0.45 0.45 0.45 0.46 0.46 0.46 0.46 0.46 0.46 0.46 0.46 0.45 0.45 0.44 0.43 0.42 0.41 0.42 0.42 0.43 0.44 0.45 0.45 0.46 0.46 0.46 0.46 0.46 0.46 0.48 0.48 0.48 0.49 0.49 0.48 0.47 0.46 0.45 0.45 0.45 0.45 0.46 0.46 0.46 0.45 0.45 0.45 0.45 0.45 0.45 0.46
0.67 0.65 0.64 0.64 0.65 0.66 0.69 0.70 0.70 0.69 0.69 0.69 0.68 0.68 0.68 0.67 0.66 0.64 0.62 0.58 0.55 0.53 0.51 0.48 0.47 0.47 0.46 0.46 0.46 0.45 0.45 0.44 0.43 0.43 0.43 0.43 0.44 0.45 0.45 0.46 0.46 0.46 0.45 0.45 0.45 0.44 0.44 0.44 0.44 0.44 0.44 0.44 0.44 0.44 0.45 0.46 0.46 0.47 0.47 0.47 0.46 0.46 0.46 0.45 0.46 0.45 0.45 0.48 0.47 0.47 0.47 0.47 0.46 0.45 0.45 0.46 0.46 0.46 0.45 0.44 0.45 0.45 0.45 0.45 0.47
0.62 0.64 0.65 0.67 0.67 0.68 0.70 0.69 0.69 0.68 0.68 0.67 0.66 0.66 0.67 0.65 0.62 0.60 0.57 0.55 0.53 0.51 0.49 0.48 0.47 0.47 0.46 0.45 0.45 0.44 0.44 0.43 0.42 0.42 0.42 0.42 0.43 0.43 0.44 0.44 0.44 0.44 0.44 0.44 0.44 0.45 0.45 0.45 0.45 0.45 0.45 0.46 0.46 0.47 0.47 0.47 0.47 0.48 0.48 0.47 0.47 0.47 0.47 0.47 0.46 0.45 0.45 0.45 0.45 0.46 0.46 0.46 0.45 0.44 0.44 0.46 0.46 0.44 0.43 0.43 0.44 0.45 0.45 0.46 0.47
0.63 0.63 0.64 0.65 0.66 0.66 0.66 0.65 0.65 0.66 0.66 0.66 0.65 0.63 0.61 0.59 0.57 0.57 0.56 0.53 0.51 0.49 0.48 0.47 0.47 0.47 0.46 0.46 0.46 0.45 0.45 0.44 0.43 0.42 0.42 0.42 0.42 0.42 0.43 0.43 0.44 0.45 0.45 0.45 0.45 0.46 0.45 0.45 0.46 0.46 0.46 0.47 0.47 0.48 0.48 0.48 0.49 0.48 0.47 0.46 0.47 0.48 0.48 0.49 0.49 0.48 0.46 0.45 0.46 0.45 0.43 0.44 0.44 0.43 0.43 0.44 0.45 0.43 0.42 0.42 0.43 0.42 0.43 0.45 0.45
Wind_Speed
18 18 18 18 18 18 18 18 18 18 17 17 16 16 15 14 14 13 13 12 12 12 12 11 11 11 10 10 10 10 10 10 10 10 9 9 9 9 9 9 9 9 9 9 9 9 9 8 9 8 8 8 8 9 9 8 9 9 9 9 9 10 10 11 11 12 12 12 12 13 13 14 15 15 15 16 16 16 16 16 16 16 16 15 15
19 19 19 19 19 19 18 18 18 19 18 18 17 17 16 15 15 14 14 13 13 13 12 12 11 11 11 11 11 11 11 10 10 10 10 10 10 10 9 10 10 10 10 10 10 10 9 9 9 9 9 9 9 9 9 9 9 10 10 10 10 10 10 11 12 12 13 13 13 14 14 15 16 16 16 17 17 17 17 17 17 16 16 16 16
20 20 20 20 20 20 19 19 19 19 19 19 19 18 17 16 16 15 15 14 14 14 13 13 12 12 12 12 11 11 11 11 11 11 11 11 11 11 11 11 11 11 11 11 11 11 10 10 10 10 10 10 10 10 10 10 10 10 10 10 10 11 11 11 12 13 13 13 14 15 15 16 16 17 17 17 18 18 18 18 18 17 17 17 17
21 21 21 21 21 20 20 20 19 20 20 20 20 19 18 17 17 16 16 16 15 14 14 14 13 13 13 13 12 12 12 12 11 11 11 11 12 12 12 12 12 12 12 12 12 12 11 11 11 11 11 11 11 11 11 11 11 11 10 10 11 11 11 12 12 13 14 14 15 15 16 16 17 17 18 17 17 18 18 18 18 18 18 18 17
22 22 22 21 21 21 21 21 20 20 20 20 20 20 19 19 18 17 17 17 16 15 15 15 15 14 14 14 13 13 13 13 12 12 12 12 12 13 13 13 13 13 13 13 12 12 12 12 12 12 12 12 12 11 11 11 11 11 11 11 11 12 12 12 13 13 14 15 15 16 16 17 17 17 17 17 18 18 18 18 18 18 18 18 18
23 23 23 22 22 22 22 21 21 21 21 21 21 21 20 20 19 19 18 18 18 17 16 16 16 15 15 15 15 14 14 14 13 13 13 13 13 13 13 13 13 13 13 13 13 13 13 13 13 13 13 12 12 12 12 12 12 12 12 12 12 12 13 13 14 14 15 16 16 16 17 17 17 17 17 18 18 18 18 19 18 18 18 18 18
25 24 24 23 23 23 23 22 22 22 21 21 22 21 21 21 20 20 19 19 19 18 18 17 17 16 16 16 16 16 15 15 15 15 14 14 14 14 14 14 14 13 13 13 14 14 14 14 14 13 13 13 13 13 13 12 12 12 12 13 13 13 13 14 14 15 16 16 17 17 17 17 17 17 18 18 18 18 18 19 18 18 17 17 17
26 26 25 25 24 24 24 23 23 23 22 22 22 22 22 22 21 21 20 20 20 19 19 18 18 18 17 17 17 17 16 16 16 16 15 14 14 14 14 14 14 14 14 14 15 15 15 15 15 14 14 14 14 13 13 13 13 13 13 13 13 14 14 15 15 15 16 16 17 17 17 17 17 17 18 18 18 18 18 18 18 18 18 17 16
27 27 27 26 26 26 25 25 24 24 24 23 23 23 23 23 22 22 21 21 20 20 20 19 19 19 18 18 18 17 17 17 17 16 15 15 15 15 15 14 14 14 14 15 15 15 15 15 15 15 15 15 15 14 14 14 14 14 14 14 14 14 15 15 15 16 16 16 16 17 17 16 17 17 17 17 17 17 17 17 17 17 17 17 16
27 27 28 28 28 27 27 26 26 25 25 25 24 24 23 23 23 23 23 22 21 21 21 20 20 20 19 19 19 18 18 17 16 16 15 15 15 15 15 15 14 14 15 15 15 15 15 15 15 15 16 16 15 15 15 15 15 15 15 15 15 15 15 15 16 16 16 16 16 16 16 16 17 18 18 18 17 17 17 17 17 17 17 16 15
28 28 28 29 29 29 28 28 27 27 26 26 26 25 24 24 23 23 23 23 22 22 22 21 21 20 20 20 19 19 18 17 17 16 16 16 16 16 15 15 15 15 15 15 15 15 15 15 15 15 15 15 15 15 15 15 15 15 15 15 15 16 16 16 16 16 16 16 16 16 17 17 18 18 18 18 17 17 17 17 17 17 17 16 16
30 30 29 29 29 29 29 29 28 28 27 27 27 27 26 25 24 24 24 24 23 23 23 22 22 22 21 21 20 20 19 18 17 17 17 17 16 16 16 16 15 16 16 16 15 15 15 15 15 15 16 16 16 16 16 15 15 15 15 15 15 15 16 16 15 16 15 15 16 16 17 17 17 18 18 18 17 17 17 17 17 16 16 16 16
31 31 30 30 30 30 30 29 29 29 29 28 28 28 27 27 26 25 25 25 24 24 24 23 23 23 22 22 21 20 19 19 18 18 18 18 17 17 17 16 16 16 17 16 16 16 16 16 16 17 17 18 18 18 17 16 15 15 15 15 15 15 14 14 15 15 15 15 15 16 16 16 17 17 17 17 17 17 16 16 16 16 15 15 15
30 31 31 31 31 31 31 31 30 30 30 29 29 28 28 28 27 26 25 25 25 25 25 24 24 23 23 22 22 21 20 20 19 19 19 19 18 18 17 17 17 18 18 18 17 17 17 17 18 18 18 18 18 18 17 16 16 16 16 16 15 14 13 14 14 15 15 15 16 16 16 16 16 16 17 16 16 16 16 16 16 16 15 15 15
29 31 32 33 32 32 32 32 31 31 30 30 29 29 29 28 28 27 26 26 26 26 25 25 24 24 23 23 22 22 21 21 20 20 19 19 19 19 18 18 18 19 18 18 18 18 18 19 19 19 19 19 18 18 17 17 17 17 16 16 15 14 14 14 15 15 15 16 16 16 16 15 15 16 16 16 16 16 16 16 16 16 16 16 16
27 29 32 33 34 33 33 33 33 32 31 31 30 30 29 29 28 28 27 26 26 26 26 25 25 24 24 23 23 23 22 22 21 21 20 20 20 20 20 20 20 19 19 19 19 19 19 20 20 20 19 19 19 19 19 18 18 17 16 15 15 14 14 14 15 15 16 16 16 16 16 15 15 16 16 17 17 17 18 18 18 18 17 17 18
25 27 30 32 35 35 34 34 34 33 32 32 31 30 30 29 29 28 28 27 26 26 26 26 25 25 25 24 24 24 23 23 22 22 21 21 21 21 21 21 20 20 20 20 20 20 20 20 20 20 19 19 19 19 18 18 17 16 15 15 16 15 15 14 15 15 16 16 16 16 15 15 15 16 17 18 19 19 19 19 19 19 19 19 20
24 26 28 30 33 35 36 36 35 35 34 33 32 31 31 30 29 29 28 27 27 26 26 26 26 25 25 25 24 24 24 23 23 23 22 22 22 22 21 21 20 20 20 20 20 20 20 20 20 19 18 18 17 17 17 17 16 15 15 16 16 15 15 16 17 17 17 16 16 16 16 16 17 18 18 19 20 20 20 19 20 20 20 20 21
24 26 27 29 31 34 36 37 36 36 35 34 33 32 31 30 30 29 29 28 28 27 26 26 26 26 26 25 25 25 24 24 24 23 23 23 23 22 22 21 21 21 20 20 20 20 20 20 19 17 17 16 15 16 16 17 17 16 16 16 16 15 16 17 18 18 17 17 17 18 17 17 18 18 18 19 20 20 20 20 20 20 20 20 21
24 25 27 28 30 32 34 37 37 37 36 35 34 33 32 31 30 30 29 29 29 28 27 27 27 27 26 26 25 25 25 24 24 23 23 23 22 22 22 22 21 21 21 21 21 20 19 18 16 15 14 14 14 15 16 16 16 16 15 15 14 15 16 16 17 17 17 17 17 17 17 17 18 18 18 19 19 19 19 19 19 20 20 20 21
24 25 26 28 30 31 33 35 36 37 37 36 35 34 33 33 32 31 31 30 29 29 29 28 28 27 27 26 25 25 25 25 24 23 23 23 23 23 23 22 21 20 20 19 19 17 16 15 15 14 14 14 14 14 14 13 13 13 13 13 13 14 14 14 14 14 14 15 15 15 16 16 17 18 18 18 18 18 19 19 20 21 21 21 22
24 25 26 27 29 30 32 33 35 36 36 36 36 35 34 34 33 33 32 32 31 30 29 29 28 28 27 26 26 25 25 24 24 23 23 23 23 22 22 21 20 19 18 17 16 16 15 15 15 15 14 13 13 12 12 11 11 11 11 11 12 12 12 11 11 12 12 13 14 15 16 16 17 17 18 18 18 19 19 20 21 21 22 22 23
23 24 25 26 26 28 30 32 33 34 35 36 36 35 35 34 34 33 33 32 32 31 30 29 29 28 27 26 26 26 25 24 23 23 22 22 21 20 19 18 18 18 17 16 16 15 14 14 14 14 13 12 12 11 11 11 11 10 10 10 11 10 10 10 11 12 14 14 15 16 16 16 17 17 18 18 19 20 20 21 21 22 23 23 24
21 22 24 24 25 26 28 30 32 33 34 35 35 35 35 34 34 34 33 32 32 32 31 31 30 28 26 26 25 25 24 23 22 21 20 19 18 18 17 17 17 17 17 16 15 14 13 13 13 12 12 11 11 10 10 10 10 9 9 10 10 11 11 12 13 14 15 15 15 15 16 16 17 18 18 19 20 21 22 22 23 23 24 24 25
20 20 21 23 24 25 26 27 30 32 33 33 34 34 34 34 34 34 33 32 32 32 31 31 30 28 27 26 25 24 22 22 21 21 19 19 18 17 17 16 16 15 15 14 13 13 12 12 12 11 11 10 9 9 9 9 10 9 10 10 11 12 13 13 13 14 14 15 15 15 16 17 17 18 19 20 22 22 23 24 24 25 25 25 26
19 19 19 20 21 23 24 24 26 28 30 31 33 34 34 34 33 33 33 32 32 31 31 30 29 28 27 26 25 24 22 21 21 20 20 19 18 17 16 15 14 14 13 12 11 11 11 11 10 10 9 8 7 7 7 8 8 9 9 10 10 11 11 12 12 13 14 14 15 15 16 17 19 20 21 22 22 23 24 25 26 26 27 27 27
16 16 16 17 18 20 21 21 22 24 26 27 29 30 32 33 32 32 32 31 31 30 30 29 27 26 26 25 24 24 23 22 20 20 20 19 18 17 15 14 14 13 12 11 11 11 10 10 9 9 8 7 7 6 7 7 8 8 9 9 9 10 11 11 12 13 13 14 15 16 18 19 20 21 22 23 24 25 26 26 27 27 28 28 28
14 14 14 14 15 17 18 19 20 21 22 23 24 25 27 29 30 29 29 29 28 28 27 26 25 24 24 24 23 22 23 22 21 20 19 18 17 16 15 14 14 13 12 12 11 11 10 10 9 8 8 8 7 7 8 8 8 9 9 9 9 10 11 12 13 14 14 16 17 18 19 21 22 23 24 25 26 26 27 28 28 28 29 28 28
11 12 12 12 13 14 14 15 16 18 19 20 20 19 21 24 26 25 24 24 24 23 22 22 22 21 21 22 21 20 20 20 19 18 17 17 16 15 15 14 14 13 13 12 12 11 11 10 9 9 8 8 8 8 8 8 9 9 9 10 11 12 12 13 14 15 16 18 19 21 22 23 24 25 26 27 27 28 28 28 29 29 29 28 28
8 9 10 9 9 10 10 10 12 13 15 16 16 15 15 19 21 21 20 19 20 20 19 18 17 18 18 18 18 18 18 18 17 16 16 16 15 15 15 15 14 14 14 13 13 12 11 10 10 9 9 9 9 9 9 9 10 10 11 11 12 13 14 15 16 17 18 20 21 22 24 24 25 26 27 27 28 28 28 28 29 29 29 29 29
7 7 7 7 8 8 8 8 9 11 13 14 15 13 13 15 18 18 17 16 17 17 16 15 14 15 15 15 15 15 15 15 15 15 15 15 15 14 14 15 15 15 15 14 13 12 11 11 10 10 10 9 9 9 10 10 11 11 12 13 13 14 15 16 17 18 20 21 22 23 24 25 26 26 27 28 28 28 28 28 29 29 29 29 30
6 7 8 8 9 9 9 9 10 12 14 14 14 15 16 15 15 15 15 14 14 13 13 13 13 13 14 14 14 14 14 14 14 14 14 13 13 13 13 14 15 15 15 14 12 11 11 11 10 10 10 10 9 10 10 11 11 12 13 13 14 16 16 18 19 20 21 22 23 24 24 25 26 27 27 28 28 28 28 29 29 29 30 31 31
7 9 9 9 9 10 10 10 11 11 13 13 13 14 15 13 11 11 12 12 12 12 11 11 11 12 12 12 12 13 13 13 13 12 12 11 11 11 11 12 13 13 13 12 11 11 11 10 10 10 10 10 10 10 11 11 12 13 14 15 16 17 18 19 20 21 22 23 24 24 25 26 27 27 28 28 28 29 29 29 30 30 31 32 32
8 9 9 9 10 10 10 10 11 11 11 11 11 12 12 11 9 9 10 10 10 10 9 9 9 9 10 11 11 11 11 11 11 10 10 10 10 11 11 10 10 10 11 11 10 10 10 10 9 9 9 10 10 11 11 12 13 14 15 16 17 18 19 20 21 22 23 24 24 25 26 27 27 28 28 28 29 29 30 30 30 31 32 33 33
8 9 9 9 10 10 10 11 11 11 11 11 11 10 10 9 8 8 9 9 9 10 9 9 9 9 10 10 11 11 10 10 9 9 10 10 10 10 10 9 9 9 10 9 9 9 9 9 9 9 10 10 11 12 12 13 14 15 16 17 18 19 20 21 22 23 24 25 26 26 27 27 28 28 28 29 29 30 30 31 31 32 33 33 34
8 9 9 9 9 10 11 11 11 11 11 11 10 10 9 9 9 9 10 10 11 11 11 10 10 10 10 9 9 9 9 9 8 8 8 9 9 9 9 9 9 9 9 8 8 8 8 8 9 9 10 11 12 13 13 14 15 16 17 18 19 20 21 22 23 24 25 26 26 27 27 27 28 28 29 30 30 30 31 32 32 33 33 34 34
8 8 8 9 9 10 10 11 11 10 10 10 10 9 9 9 9 9 9 9 9 9 9 9 9 8 8 7 7 8 8 8 8 8 8 8 8 9 9 8 8 8 8 8 8 8 8 9 9 10 11 12 12 13 14 15 16 17 18 18 20 21 22 23 24 25 25 26 26 27 27 28 29 29 30 30 31 31 32 32 33 33 33 34 34
9 8 9 9 9 10 10 10 10 9 9 9 9 9 8 8 8 8 8 8 7 7 7 7 7 7 7 7 7 8 8 8 8 8 8 8 8 8 8 8 8 7 7 7 8 8 8 9 10 11 11 12 13 13 14 15 16 17 18 20 21 22 23 24 25 25 26 26 27 27 28 29 29 30 30 31 31 32 32 32 33 33 33 34 34
10 10 10 10 10 10 10 11 10 10 9 9 8 8 8 8 8 8 7 7 6 6 5 6 6 6 6 6 7 7 7 7 7 7 7 7 7 7 7 7 7 7 7 8 8 9 9 10 10 11 12 12 13 14 15 16 17 19 20 21 22 23 23 24 25 25 26 26 27 28 29 29 30 30 30 31 31 32 32 32 33 33 33 34 34
11 11 11 11 11 10 10 10 10 9 9 8 8 8 8 7 7 7 6 6 5 5 5 5 5 5 5 5 6 7 7 7 6 7 7 7 7 7 7 7 7 7 8 8 8 9 9 10 11 11 12 13 14 15 16 18 19 20 21 22 22 23 24 24 25 25 26 27 28 28 29 29 30 30 30 31 31 32 32 33 33 33 33 34 34
12 12 12 11 11 10 10 10 9 9 9 8 8 8 8 7 7 6 6 5 5 5 4 4 4 4 4 4 5 6 7 6 6 6 6 6 6 6 7 7 7 7 8 8 9 9 10 10 11 12 13 14 15 17 18 19 20 20 21 22 22 23 24 24 25 26 27 27 28 28 29 29 30 30 31 31 32 32 32 33 33 33 33 33 34
12 13 12 12 11 11 10 10 10 10 9 9 8 8 8 7 7 6 6 5 5 5 4 4 4 4 4 4 4 5 6 6 6 6 6 6 6 6 7 7 7 8 8 9 9 10 10 11 12 13 14 16 17 18 19 19 20 21 21 22 23 23 24 25 25 26 27 27 27 28 29 29 30 30 31 31 32 32 32 32 33 33 33 33 33
12 13 13 13 12 12 11 11 11 10 10 9 9 9 8 8 7 7 6 6 5 5 5 4 4 4 4 4 5 5 6 6 6 6 6 6 6 7 7 7 8 8 9 9 10 11 12 12 14 15 16 17 17 18 19 20 20 21 21 22 23 23 24 25 26 27 27 27 28 29 29 30 30 30 31 31 31 32 32 32 32 32 32 32 32
12 13 14 14 13 13 12 12 11 11 11 10 10 10 9 8 8 7 6 6 6 6 5 5 5 5 5 5 6 6 6 6 6 6 6 6 7 7 7 8 8 9 9 10 11 12 13 14 14 15 16 17 17 18 19 19 20 21 21 22 23 24 25 26 27 27 28 28 28 29 29 30 30 31 31 31 31 31 32 32 32 32 32 32 31
12 12 14 14 14 14 13 12 12 11 11 11 11 10 9 9 8 7 7 6 6 6 6 6 6 6 6 6 6 7 7 7 7 7 7 7 7 8 8 9 9 10 10 11 12 13 13 14 15 15 16 17 17 18 18 19 20 21 22 23 24 25 26 26 27 27 27 28 28 29 29 30 30 30 31 31 31 31 31 31 31 31 31 31 31
11 12 13 14 15 14 14 13 13 12 12 12 11 10 9 9 8 7 7 6 6 6 6 7 7 7 7 7 7 7 7 7 7 7 8 8 8 9 10 10 10 11 11 12 13 13 14 15 15 16 16 17 17 18 19 19 20 21 22 23 24 25 26 26 26 27 27 28 28 29 29 30 30 30 30 30 30 30 30 30 30 30 30 30 30
11 12 13 14 14 14 14 14 14 13 12 11 11 10 10 9 9 8 7 7 7 7 8 8 8 8 8 8 8 8 8 8 8 8 8 9 9 10 10 10 11 11 12 13 14 14 15 15 16 16 16 17 17 18 19 20 21 22 23 23 24 25 25 26 26 27 27 27 28 29 29 29 29 29 29 29 29 29 29 29 29 29 29 29 28
11 12 13 13 13 13 14 14 14 13 12 12 12 12 11 10 9 8 8 8 8 8 8 8 8 8 8 8 8 8 8 8 8 9 9 10 10 10 11 11 12 12 13 14 14 15 15 16 16 16 17 17 18 19 20 20 21 22 22 23 24 24 25 25 26 26 27 28 28 28 28 28 28 29 29 29 28 28 28 28 28 28 28 27 26
11 12 13 13 13 13 13 13 14 13 13 13 13 12 11 10 10 9 9 9 8 8 8 8 8 8 8 8 8 8 8 9 9 9 10 10 10 11 11 12 13 13 14 14 15 15 16 16 17 17 17 18 19 19 20 21 21 22 22 23 23 24 24 25 26 26 27 27 28 28 28 28 28 28 28 28 27 27 27 27 27 26 26 24 23
10 12 13 13 13 12 12 13 13 14 14 14 13 12 11 11 10 9 9 9 9 9 8 8 8 8 8 8 8 8 9 9 9 10 10 11 11 12 12 13 13 14 14 15 15 16 16 17 17 17 18 19 19 20 20 21 21 21 22 22 23 24 25 25 26 27 27 27 27 27 27 27 27 27 27 27 26 26 26 26 25 24 23 21 20
8 10 11 12 13 13 12 12 13 13 14 14 14 13 12 11 11 10 10 9 9 9 9 8 8 8 8 8 9 9 9 10 10 11 11 12 12 13 13 14 14 15 15 15 16 16 16 17 17 18 19 19 20 20 20 21 21 21 22 23 23 24 25 26 26 27 27 27 27 26 26 26 26 26 26 26 26 25 25 24 23 21 20 19 18
Wind_Direction
222 222 222 221 220 220 221 221 219 218 217 217 217 217 217 218 218 219 219 220 219 218 218 219 220 221 220 221 223 226 228 230 232 235 239 242 245 248 251 255 258 261 263 265 265 266 268 270 274 278 282 283 285 290 293 295 297 299 299 301 303 305 307 307 309 312 315 317 319 320 322 324 325 326 327 327 328 329 329 328 328 328 328 327 326
224 223 223 223 223 222 221 222 221 220 218 218 219 219 219 220 221 221 221 221 221 221 221 222 223 224 224 225 227 229 231 233 235 238 241 244 247 250 253 256 260 262 263 264 264 265 266 267 270 274 277 279 282 285 287 290 293 295 297 300 302 303 305 306 308 311 314 316 318 319 320 322 323 323 324 324 324 325 325 325 324 324 323 323 321
225 225 225 224 224 224 223 223 222 221 220 220 221 221 222 222 222 223 223 223 223 223 223 224 226 227 228 230 231 232 234 236 238 241 244 246 250 252 255 258 261 263 264 265 265 265 265 266 267 271 275 277 280 283 285 287 290 293 295 298 300 302 304 306 308 310 313 315 317 318 319 321 321 321 322 321 321 322 322 322 321 321 320 320 319
225 226 226 226 225 225 224 223 223 223 222 222 223 223 223 224 224 224 225 225 225 225 226 227 229 229 231 233 234 236 238 240 242 245 247 249 253 256 258 260 263 265 266 266 265 266 268 272 275 278 280 280 281 282 284 285 287 291 293 296 299 301 303 305 307 309 311 313 315 317 318 319 320 320 320 320 321 322 322 321 321 320 319 319 318
226 226 226 226 226 225 225 224 224 224 223 224 224 224 225 225 225 226 226 227 227 227 228 229 230 231 233 235 236 238 240 242 246 249 250 253 256 258 260 262 264 266 267 267 268 271 275 278 280 282 283 284 283 283 283 284 286 289 292 295 297 300 302 304 306 309 310 312 314 316 318 319 319 319 320 320 321 321 322 322 322 321 320 320 319
226 226 226 226 226 226 226 225 225 224 225 225 225 225 226 226 227 227 228 228 228 228 229 231 232 233 235 236 238 240 241 244 248 251 253 256 260 261 261 263 265 267 269 269 271 274 275 276 277 277 279 282 283 282 281 282 284 287 290 293 295 298 301 303 305 307 310 312 314 315 317 318 319 319 320 321 321 321 322 323 323 323 322 322 322
227 227 227 226 226 226 226 226 226 225 226 226 227 227 227 227 228 229 229 228 228 229 230 232 234 235 237 238 239 240 243 247 250 252 256 260 262 263 263 264 265 267 269 270 272 273 273 274 275 274 276 278 279 280 280 281 282 285 288 290 293 296 299 301 303 306 309 311 312 313 315 316 317 318 319 320 321 321 322 323 324 324 324 324 323
228 228 228 227 227 227 227 227 227 227 227 228 228 228 228 228 229 230 230 229 229 230 231 232 235 237 238 238 238 241 246 249 253 257 261 262 263 265 264 264 266 267 268 270 273 274 273 274 275 275 275 276 276 276 278 280 281 283 286 289 292 295 298 300 303 306 309 310 311 313 314 315 316 317 319 320 321 321 321 322 323 324 325 325 325
228 228 229 229 229 228 228 228 228 229 229 229 229 229 229 230 230 230 231 231 231 232 232 234 236 237 239 239 240 243 247 251 254 259 262 262 264 265 264 264 265 267 269 271 274 275 274 275 275 274 273 274 274 275 276 279 280 281 284 287 291 294 297 300 303 305 307 309 310 312 313 314 316 318 319 320 321 321 321 321 321 323 324 324 324
230 229 229 230 230 230 230 230 230 230 230 230 230 230 230 230 230 231 232 233 233 233 234 236 237 238 239 240 242 244 248 251 254 256 258 260 263 263 263 264 266 268 270 272 273 275 275 276 275 273 272 273 274 274 275 277 279 281 284 287 290 293 295 298 301 303 305 307 309 311 312 314 316 318 319 320 321 321 321 321 321 321 322 322 323
231 230 230 231 231 231 231 231 231 231 231 230 230 231 231 231 231 232 233 233 234 235 236 237 238 238 239 240 243 245 248 251 254 254 256 259 261 262 263 265 266 268 270 272 273 275 276 276 276 274 273 273 275 275 275 275 277 280 285 288 291 293 293 295 298 301 304 306 309 311 313 314 316 318 319 319 320 320 320 320 319 320 322 323 322
232 232 231 231 232 232 231 231 231 232 232 232 231 231 232 232 233 233 234 234 235 236 237 237 238 239 239 240 242 244 247 251 254 254 257 259 260 262 264 264 265 268 271 272 274 276 276 276 276 276 275 275 276 277 276 275 275 279 284 288 292 293 293 294 297 300 304 307 310 313 314 315 316 318 319 319 318 319 319 318 318 319 321 322 321
232 232 232 231 232 232 232 232 232 232 233 233 233 233 233 233 234 235 235 236 236 237 238 238 238 239 240 240 242 243 246 250 253 254 256 258 259 261 263 264 265 267 271 273 274 276 276 276 277 278 278 278 278 278 277 276 277 280 283 286 290 292 293 294 297 301 303 306 310 314 315 314 315 317 319 319 318 319 319 318 318 319 319 321 322
233 232 232 232 232 232 232 232 232 233 233 234 234 234 234 234 235 236 237 237 237 238 239 239 239 239 240 240 241 243 246 250 253 253 254 256 258 260 262 264 265 268 271 274 275 276 276 276 277 278 279 279 279 278 276 276 279 281 280 282 287 289 290 293 297 301 303 305 309 312 312 312 313 315 317 318 319 319 319 319 318 317 317 319 322
236 234 233 233 232 232 232 233 233 233 233 234 234 234 235 235 236 236 237 238 239 240 240 239 239 240 240 241 242 244 247 250 252 252 253 255 257 259 261 263 265 268 271 272 274 275 276 277 277 278 279 279 277 276 275 276 279 278 277 279 282 283 287 293 297 300 302 304 306 307 307 309 311 311 313 316 318 318 318 319 318 317 315 316 319
238 237 236 234 233 232 232 232 233 233 234 234 234 235 235 235 236 236 237 238 239 239 239 239 239 240 241 242 242 244 247 250 252 253 254 255 256 259 261 263 265 268 270 272 274 276 277 278 278 278 278 276 275 274 274 275 276 274 273 275 277 280 287 294 299 302 304 306 306 304 303 305 309 311 313 316 316 315 314 315 316 317 315 313 314
241 240 238 237 235 233 232 232 232 233 233 234 235 235 235 235 236 237 237 238 238 238 238 238 239 241 242 242 243 245 247 250 252 253 254 255 257 260 262 264 266 268 270 273 274 276 277 278 278 278 276 275 274 274 275 275 273 270 269 272 277 281 285 290 296 301 304 305 306 305 302 302 307 311 314 315 315 313 311 312 314 314 314 313 313
245 242 240 239 236 234 233 232 232 232 232 233 235 235 235 236 236 237 237 238 237 238 238 239 239 241 242 243 244 246 248 250 252 254 255 256 258 260 262 264 266 268 270 272 274 275 276 276 276 276 275 274 274 274 274 273 270 269 270 273 276 280 282 286 291 295 298 299 301 302 302 303 306 309 311 313 314 314 313 314 314 314 313 313 313
248 246 243 241 238 236 234 233 232 232 232 233 234 235 236 236 236 237 237 237 236 237 238 239 240 241 243 244 245 246 248 250 253 254 255 257 259 260 261 263 265 267 269 272 274 276 276 275 274 274 273 272 273 274 274 270 268 270 272 273 275 279 282 285 288 291 293 295 298 299 300 303 306 307 309 312 315 316 316 314 313 313 312 312 312
251 249 247 243 241 238 235 234 233 232 232 233 233 234 235 236 236 236 236 236 235 236 237 239 239 241 242 243 245 247 249 250 252 254 255 257 258 258 260 262 264 266 269 271 272 273 272 270 271 272 272 272 273 274 274 271 269 269 270 271 274 279 282 285 288 291 293 296 298 300 301 303 306 308 310 314 316 317 316 314 313 312 312 311 311
254 251 249 246 243 239 237 235 234 233 233 233 233 234 235 236 236 236 236 236 236 236 237 239 239 240 241 243 244 247 248 249 252 254 256 257 258 259 260 262 263 264 266 267 268 266 265 265 266 268 269 271 271 271 272 272 270 269 269 272 275 279 284 288 291 293 295 297 299 302 303 305 307 309 312 314 315 316 316 315 314 313 312 312 312
255 252 250 248 244 241 238 236 234 233 232 233 233 234 236 236 236 236 236 236 236 236 237 239 239 239 240 242 243 245 247 249 251 254 256 257 258 259 259 260 261 262 262 261 262 264 264 264 264 264 265 268 270 269 269 269 268 267 271 275 277 281 285 289 291 294 298 300 303 304 305 306 308 310 312 314 315 316 315 315 314 313 313 313 313
257 253 251 249 246 243 239 236 234 232 232 232 233 234 236 237 236 235 235 235 236 236 237 238 238 238 239 241 243 244 245 247 250 252 254 256 256 256 257 258 259 259 258 257 259 262 263 262 261 262 264 267 267 265 265 268 269 269 272 273 274 278 282 286 290 295 299 301 303 305 307 309 311 313 314 314 314 315 314 314 314 314 314 314 313
259 255 251 249 246 244 241 237 235 233 232 232 233 234 235 236 236 235 235 235 236 237 237 237 236 236 236 238 240 242 243 244 247 249 250 251 252 253 255 257 257 257 256 256 256 256 256 256 256 260 264 265 263 262 264 269 271 270 267 267 270 277 284 288 292 296 299 301 303 306 309 312 313 315 315 314 314 314 314 314 314 314 314 313 313
259 256 252 248 245 243 241 238 236 234 233 232 233 233 233 234 235 235 236 236 236 236 235 235 235 234 234 235 236 238 240 242 243 244 245 248 249 251 252 253 254 252 251 250 250 251 251 250 251 255 258 258 259 263 267 271 272 272 271 272 276 282 286 290 294 298 301 304 306 308 310 311 312 314 314 314 314 314 314 314 314 314 313 312 312
259 255 252 249 245 241 239 237 236 234 234 234 234 233 233 233 234 234 235 235 235 234 233 234 234 233 234 235 235 236 238 241 243 242 242 244 245 245 247 248 246 243 241 240 242 243 244 244 245 247 250 253 256 260 264 268 271 273 276 279 283 288 292 296 300 304 306 307 307 308 309 309 309 311 312 313 314 314 314 314 313 313 313 312 311
257 254 252 248 245 241 237 235 234 232 232 232 232 232 232 232 232 232 231 232 232 232 232 233 234 234 233 233 233 235 237 239 240 240 240 240 241 241 242 240 235 231 231 233 235 236 238 241 243 244 246 248 250 251 256 263 269 275 282 287 293 298 301 303 304 305 304 304 304 305 306 307 308 310 312 313 314 314 314 314 313 314 313 312 312
253 251 248 245 241 237 233 231 230 228 226 226 226 228 229 228 227 228 229 229 229 230 231 232 233 233 231 228 229 232 235 236 236 237 237 237 237 236 234 230 227 227 228 229 231 233 237 240 241 241 242 242 245 252 260 269 276 282 287 291 294 296 298 299 300 301 302 304 305 307 308 309 310 311 312 312 313 314 314 314 314 314 313 313 312
248 245 242 239 235 229 226 224 223 221 219 218 220 226 230 227 223 222 225 226 224 223 223 223 223 223 224 224 224 226 227 228 229 230 232 232 231 230 227 226 228 230 229 226 226 229 234 236 237 238 240 243 251 261 268 275 281 285 289 292 293 295 297 299 301 303 304 305 306 307 308 309 310 311 311 312 312 313 313 313 313 312 312 312 311
235 231 229 226 220 215 214 212 211 210 209 208 210 217 225 222 213 209 212 215 212 206 204 206 210 214 219 222 223 221 220 221 223 225 229 231 231 228 226 226 228 228 224 223 225 230 234 236 238 240 244 250 259 268 273 277 282 286 290 294 297 299 301 303 304 304 305 306 306 307 308 309 310 311 311 312 312 312 312 313 312 312 312 312 311
215 209 205 198 192 190 189 187 186 187 187 188 189 188 185 185 187 189 191 192 192 194 199 205 212 216 217 218 219 217 216 218 221 225 228 229 229 228 226 225 223 222 222 224 228 232 234 235 239 245 251 257 265 271 275 280 284 288 292 296 299 301 303 304 305 305 306 307 307 308 308 309 310 310 311 312 312 312 312 312 312 312 312 311 311
191 185 182 179 176 172 168 165 165 166 167 170 175 175 170 165 169 177 181 183 188 197 204 209 213 215 214 212 212 212 213 216 219 221 222 222 222 222 222 222 221 222 223 225 228 231 234 236 240 248 256 264 270 275 279 284 288 292 295 297 300 301 303 304 306 306 306 307 307 308 309 309 310 310 311 311 312 312 312 312 312 312 312 311 311
170 169 170 171 171 169 165 165 166 166 165 166 169 173 172 169 167 173 181 188 194 198 198 200 205 209 209 205 203 204 207 211 212 213 213 212 212 212 213 214 216 218 221 225 228 230 234 238 244 252 261 269 274 279 284 288 291 293 295 297 299 301 303 304 305 305 305 306 307 308 309 309 310 310 311 311 312 312 312 312 312 312 312 311 311
159 157 158 160 162 163 163 166 168 167 167 169 170 171 174 176 175 175 179 182 184 185 185 188 193 195 194 192 191 192 195 197 199 201 204 207 208 207 206 206 209 215 221 225 228 231 236 243 252 260 266 272 277 281 286 289 291 294 296 298 300 301 302 303 304 304 305 306 308 309 309 309 310 310 311 312 312 312 312 312 312 312 312 312 312
156 151 148 147 149 151 154 159 163 162 162 165 166 164 162 160 157 157 160 160 158 158 158 161 165 169 171 175 178 181 184 188 193 198 203 205 205 204 202 204 210 217 222 224 229 235 243 251 258 264 269 274 279 282 286 289 292 294 297 298 300 300 301 302 303 305 306 307 308 309 309 309 310 311 311 311 312 312 312 312 312 312 312 312 312
162 161 157 153 150 151 153 156 160 161 159 158 158 154 150 145 142 141 143 143 142 142 145 148 152 155 159 165 173 179 183 188 192 196 200 203 205 205 204 206 212 217 222 227 234 241 250 258 264 269 273 277 281 284 288 291 294 295 297 298 299 300 301 303 304 306 307 308 308 309 309 310 310 311 311 311 312 312 313 313 312 312 312 312 312
168 167 164 160 157 157 159 162 164 163 160 157 154 152 149 148 146 146 146 145 144 146 149 152 155 158 164 174 184 189 191 192 194 195 199 204 207 208 207 208 212 219 226 235 242 248 257 265 270 274 277 281 285 288 291 293 295 296 298 299 300 301 303 305 306 307 307 308 309 309 310 310 311 312 312 312 312 313 313 313 313 312 312 312 312
174 169 162 160 161 162 163 165 165 163 159 156 155 156 157 158 158 157 156 156 155 156 160 164 168 173 178 185 192 195 196 196 197 199 202 206 209 210 211 214 220 227 235 244 252 259 266 271 275 278 281 285 288 290 293 295 296 298 299 300 302 303 305 306 307 308 308 309 309 310 311 311 312 312 312 312 313 313 313 313 313 313 312 313 312
180 176 169 165 163 163 162 161 161 161 161 161 163 165 165 166 166 166 165 164 165 167 172 175 177 180 185 191 197 200 200 201 203 205 207 211 214 216 219 224 230 238 246 253 260 266 271 274 276 280 284 287 290 292 294 296 298 299 300 302 303 304 306 306 307 308 309 310 310 311 311 312 312 312 312 312 313 313 313 313 313 313 313 314 314
185 184 180 177 175 173 172 171 170 171 173 175 175 175 174 175 174 174 174 176 178 180 182 183 185 189 196 203 208 209 207 205 207 209 210 213 218 223 228 234 240 246 252 257 262 267 272 275 278 282 286 289 292 294 296 298 299 301 302 303 304 306 307 308 308 309 310 310 311 311 311 312 312 312 313 314 314 314 314 314 314 314 314 315 315
195 192 189 187 186 187 189 190 189 188 187 188 188 186 184 184 184 184 185 187 188 189 191 192 194 200 208 213 216 215 211 207 208 211 214 217 223 229 235 241 246 250 255 260 266 271 275 279 283 286 289 292 294 296 298 300 301 303 304 305 306 307 308 309 309 310 310 311 311 312 312 313 314 314 315 315 315 315 315 315 315 315 315 315 315
207 203 199 197 198 200 203 203 200 197 195 196 197 196 195 193 190 190 191 194 194 194 195 196 199 206 213 216 216 214 211 209 212 216 220 224 229 235 241 246 252 257 263 267 272 275 279 283 286 289 292 295 297 299 301 302 303 304 305 306 307 308 308 309 310 311 311 312 313 314 315 315 316 316 316 316 315 315 315 316 315 315 316 316 316
215 212 207 204 205 207 207 206 204 203 203 203 202 201 201 199 196 194 194 195 198 199 199 202 208 215 219 221 221 219 216 216 218 221 225 231 237 243 249 255 261 266 270 273 277 280 283 286 289 292 295 297 299 301 302 303 304 305 306 307 308 309 309 310 311 313 313 314 314 315 316 316 316 316 316 316 315 315 316 316 316 316 316 316 316
216 213 207 204 205 206 206 207 207 206 204 203 202 202 202 201 201 201 200 200 204 208 213 217 222 224 225 226 227 225 223 224 226 230 234 240 246 252 258 263 268 271 275 278 281 284 286 289 292 295 298 300 301 302 303 305 306 307 307 308 310 311 312 312 313 314 315 315 315 316 316 316 316 316 316 316 316 316 316 316 316 316 316 316 316
212 210 206 205 207 207 207 208 209 206 204 204 204 204 205 207 208 208 209 212 216 221 226 229 230 230 230 231 231 231 231 233 235 240 245 250 256 261 265 269 272 275 278 281 284 287 289 292 295 297 299 300 302 303 305 307 308 310 311 311 312 313 313 313 314 314 315 315 315 316 316 316 317 317 316 316 316 316 316 316 316 316 316 316 316
209 209 208 207 207 208 209 211 212 211 210 209 208 208 212 214 214 215 219 224 229 234 237 237 236 237 238 238 237 237 239 242 245 250 255 260 264 268 270 273 276 279 282 285 287 290 292 294 296 297 299 300 302 304 307 309 311 312 313 314 314 314 314 315 315 315 316 316 316 316 316 316 317 317 317 316 316 316 316 316 316 317 317 317 318
212 212 210 207 206 208 211 214 215 215 214 214 213 215 217 217 217 219 224 230 236 243 244 242 240 242 242 241 241 242 245 249 254 258 262 266 269 271 274 276 280 283 286 288 290 292 293 295 296 298 300 302 305 307 309 310 312 313 314 315 316 316 317 317 317 316 316 316 316 317 317 317 317 317 318 318 317 317 317 317 317 318 318 319 319
215 213 210 207 207 209 212 213 214 214 214 215 215 215 216 217 219 223 228 233 239 243 244 243 243 244 244 244 245 248 252 256 260 264 267 270 273 275 278 281 284 286 288 290 292 294 295 297 298 300 302 304 306 308 309 310 311 313 315 317 318 319 319 319 318 318 317 317 318 318 318 318 318 318 319 319 319 319 319 319 319 320 320 320 320
213 210 207 205 206 208 211 214 213 212 212 215 217 217 217 220 225 230 235 239 242 244 244 244 244 245 245 246 249 253 257 261 264 268 271 274 277 279 281 283 286 288 290 292 294 295 297 298 300 301 303 304 305 306 308 310 311 313 315 317 318 319 320 320 320 320 319 319 319 319 319 319 319 320 320 320 320 321 321 321 322 321 321 321 322
209 208 206 205 204 205 208 213 216 217 218 221 224 223 224 226 231 236 240 243 245 244 243 243 243 244 246 249 253 257 261 265 269 273 276 278 280 281 283 284 287 289 291 293 294 296 297 298 300 301 301 303 304 306 308 310 312 314 315 316 317 319 320 320 321 322 322 321 321 320 320 320 320 321 321 321 322 322 323 323 323 323 323 323 324
204 206 208 209 210 209 210 213 218 222 226 229 230 230 229 231 233 236 240 244 245 242 240 241 245 248 251 255 259 263 267 270 274 277 279 280 281 282 283 284 287 289 291 293 294 296 297 298 299 300 301 303 304 306 308 310 311 313 314 316 317 318 320 321 321 322 323 323 323 322 321 321 321 321 322 322 323 323 323 324 324 324 324 325 326